Waarnemingen

Advertentie
Mijn weer
Lamezia Terme, Italië (16362): temperatuur & dauwpunt: 16.10.2017 17:00:00 - 22.10.2017 17:00:00 (CEST)Lamezia Terme, Italië (16362): windsnelheid: 16.10.2017 17:00:00 - 22.10.2017 17:00:00 (CEST)Lamezia Terme, Italië (16362): windrichting: 16.10.2017 17:00:00 - 22.10.2017 17:00:00 (CEST)Lamezia Terme, Italië (16362): luchtdruk: 16.10.2017 17:00:00 - 22.10.2017 17:00:00 (CEST)Lamezia Terme, Italië (16362): zicht: 16.10.2017 17:00:00 - 22.10.2017 17:00:00 (CEST)Lamezia Terme, Italië (16362): neerslag: 16.10.2017 17:00:00 - 22.10.2017 17:00:00 (CEST)
Datum & Tijd tt [°C] td [°C] ff [km/u] ff [kn] dd ppp [hPa] vv [km] rr [mm]
22.10.2017 17:00:00 21,2 14,7 18 10 WZW 1016,6 10 -
22.10.2017 16:00:00 22,0 16,0 22 12 W - 10 -
22.10.2017 15:00:00 22,0 15,0 24 13 W - 10 -
22.10.2017 14:00:00 22,2 15,4 24 13 W 1018,4 10 0,0
22.10.2017 13:00:00 22,0 16,0 24 13 W - 10 -
22.10.2017 12:00:00 22,0 15,0 21 11 WZW - 10 -
22.10.2017 11:00:00 21,4 14,6 18 10 WZW 1020,2 10 -
22.10.2017 10:00:00 20,0 15,0 13 7 ZW - 10 -
22.10.2017 09:00:00 19,0 15,0 4 2 - - 10 -
22.10.2017 08:00:00 17,5 14,1 8 4 ZW 1020,7 10 0,0
22.10.2017 07:00:00 13,0 12,0 2 1 - - 10 -
22.10.2017 06:00:00 13,0 11,0 2 1 - - 10 -
22.10.2017 05:00:00 11,7 9,5 4 2 O 1020,5 10 -
22.10.2017 04:00:00 16,0 13,0 5 3 ZW - 10 -
22.10.2017 03:00:00 18,0 14,0 9 5 ZZW - 10 -
22.10.2017 02:00:00 16,6 14,4 8 4 ZW 1021,1 10 0,0
22.10.2017 01:00:00 16,0 14,0 5 3 ZZW - 10 -
22.10.2017 00:00:00 16,0 14,0 0 0 N - 10 -
21.10.2017 23:00:00 15,7 13,2 0 0 N 1021,2 10 -
21.10.2017 22:00:00 18,0 13,0 8 4 W - 10 -
21.10.2017 21:00:00 18,0 14,0 9 5 W - 10 -
21.10.2017 20:00:00 18,8 13,5 11 6 W 1020,9 10 0,0
21.10.2017 19:00:00 19,0 13,0 15 8 W - 10 -
21.10.2017 18:00:00 21,0 15,0 21 11 W - 10 -
21.10.2017 17:00:00 21,7 15,5 26 14 W 1020,4 10 -
21.10.2017 16:00:00 22,0 15,0 22 12 W - 10 -
21.10.2017 15:00:00 23,0 14,0 18 10 W - 10 -
21.10.2017 14:00:00 23,2 14,8 18 10 W 1020,4 10 0,0
21.10.2017 13:00:00 23,0 15,0 15 8 W - 10 -
21.10.2017 12:00:00 23,0 13,0 11 6 ZW - 10 -
21.10.2017 11:00:00 23,5 13,6 11 6 O 1021,6 10 -
21.10.2017 10:00:00 21,0 14,0 16 9 ONO - 10 -
21.10.2017 09:00:00 19,0 14,0 15 8 ONO - 10 -
21.10.2017 08:00:00 14,3 12,7 9 5 OZO 1020,9 10 0,0
21.10.2017 07:00:00 13,0 12,0 8 4 OZO - 10 -
21.10.2017 06:00:00 13,0 11,0 8 4 OZO - 10 -
21.10.2017 05:00:00 13,4 11,8 9 5 O 1020,3 10 -
21.10.2017 04:00:00 12,0 11,0 9 5 O - 10 -
21.10.2017 03:00:00 13,0 11,0 11 6 ONO - 10 -
21.10.2017 02:00:00 13,0 11,5 11 6 O 1020,6 10 0,0
21.10.2017 01:00:00 15,0 13,0 11 6 O - 10 -
21.10.2017 00:00:00 15,0 12,0 9 5 O - 10 -
20.10.2017 23:00:00 15,8 13,1 8 4 OZO 1020,7 10 -
20.10.2017 22:00:00 19,0 14,0 16 9 NO - 10 -
20.10.2017 21:00:00 19,0 15,0 15 8 NO - 10 -
20.10.2017 20:00:00 19,0 15,9 9 5 NO 1019,7 10 0,0
20.10.2017 19:00:00 19,0 14,0 4 2 NO - 10 -
20.10.2017 18:00:00 22,0 15,0 4 2 WZW - 10 -
20.10.2017 17:00:00 22,8 13,8 9 5 ZW 1018,6 10 -
20.10.2017 16:00:00 23,0 14,0 15 8 W - 10 -
20.10.2017 15:00:00 24,0 13,0 18 10 W - 10 -
20.10.2017 14:00:00 24,5 13,5 15 8 W 1018,5 10 0,0
20.10.2017 13:00:00 25,0 11,0 15 8 W - 10 -
20.10.2017 12:00:00 25,0 13,0 8 4 - - 10 -
20.10.2017 11:00:00 24,9 12,7 9 5 O 1019,0 10 -
20.10.2017 10:00:00 21,0 13,0 13 7 O - 10 -
20.10.2017 09:00:00 17,0 13,0 11 6 O - 10 -
20.10.2017 08:00:00 15,3 12,0 11 6 O 1018,5 10 0,0
20.10.2017 07:00:00 14,0 10,0 9 5 O - 10 -
20.10.2017 06:00:00 15,0 11,0 8 4 O - 10 -
20.10.2017 05:00:00 15,0 11,3 8 4 ONO 1017,9 10 -
20.10.2017 04:00:00 13,0 10,0 11 6 O - 10 -
20.10.2017 03:00:00 12,0 9,0 9 5 O - 10 -
20.10.2017 02:00:00 12,1 9,3 9 5 O 1017,8 10 0,0
20.10.2017 01:00:00 12,0 9,0 9 5 O - 10 -
20.10.2017 00:00:00 12,0 10,0 11 6 O - 10 -
19.10.2017 23:00:00 12,5 10,4 9 5 O 1018,4 10 -
19.10.2017 22:00:00 14,0 12,0 9 5 O - 10 -
19.10.2017 21:00:00 14,0 12,0 9 5 O - 10 -
19.10.2017 20:00:00 15,7 13,9 8 4 O 1018,5 10 -
19.10.2017 19:00:00 18,0 14,0 2 1 ZW - 10 -
19.10.2017 18:00:00 20,0 15,0 5 3 ZW - 10 -
19.10.2017 17:00:00 21,6 15,1 8 4 ZW 1017,7 10 -
19.10.2017 16:00:00 21,0 15,0 9 5 W - 10 -
19.10.2017 15:00:00 21,0 15,0 15 8 W - 10 -
19.10.2017 14:00:00 22,0 15,8 16 9 W 1018,2 10 -
19.10.2017 13:00:00 22,0 15,0 15 8 W - 10 -
19.10.2017 12:00:00 22,0 15,0 11 6 W - 10 -
19.10.2017 11:00:00 21,6 13,9 2 1 - 1019,2 10 -
19.10.2017 10:00:00 19,0 16,0 5 3 - - 10 -
19.10.2017 09:00:00 15,0 14,0 8 4 O - 10 -
19.10.2017 08:00:00 12,3 11,8 9 5 O 1018,9 10 0,0
19.10.2017 07:00:00 15,0 13,0 9 5 O - 10 -
19.10.2017 06:00:00 11,0 10,0 9 5 O - 10 -
19.10.2017 05:00:00 10,7 10,2 8 4 O 1019,1 10 -
19.10.2017 04:00:00 12,0 11,0 9 5 O - 10 -
19.10.2017 03:00:00 13,0 12,0 8 4 O - 10 -
19.10.2017 02:00:00 12,9 12,2 8 4 O 1019,5 10 0,0
19.10.2017 01:00:00 14,0 13,0 5 3 O - 10 -
19.10.2017 00:00:00 - - - - - - - -
18.10.2017 23:00:00 15,0 13,0 4 2 - - 10 -
18.10.2017 22:00:00 15,0 14,0 4 2 - - 10 -
18.10.2017 21:00:00 17,0 14,0 0 0 N - 10 -
18.10.2017 20:00:00 16,9 14,4 4 2 - 1019,5 10 0,0
18.10.2017 19:00:00 19,0 15,0 8 4 WZW - 10 -
18.10.2017 18:00:00 20,0 15,0 15 8 W - 10 -
18.10.2017 17:00:00 21,0 15,1 16 9 W 1019,0 10 -
18.10.2017 16:00:00 22,0 15,0 15 8 W - 10 -
18.10.2017 15:00:00 22,0 16,0 16 9 WZW - 10 -
18.10.2017 14:00:00 21,7 15,8 16 9 WZW 1020,1 10 0,0
18.10.2017 13:00:00 22,0 16,0 16 9 WZW - 10 -
18.10.2017 12:00:00 21,0 15,0 13 7 WZW - 9 -
18.10.2017 11:00:00 21,3 15,3 8 4 ZW 1021,6 9 -
18.10.2017 10:00:00 18,0 16,0 4 2 - - 9 -
18.10.2017 09:00:00 15,0 14,0 5 3 O - 10 -
18.10.2017 08:00:00 15,1 14,3 8 4 O 1021,7 10 0,0
18.10.2017 07:00:00 12,0 12,0 9 5 O - 10 -
18.10.2017 06:00:00 12,0 11,0 8 4 O - 10 -
18.10.2017 05:00:00 12,3 11,7 8 4 O 1021,7 10 -
18.10.2017 04:00:00 13,0 12,0 8 4 O - 10 -
18.10.2017 03:00:00 13,0 12,0 9 5 O - 10 -
18.10.2017 02:00:00 12,9 12,2 9 5 O 1022,9 10 0,0
18.10.2017 01:00:00 12,0 11,0 9 5 O - 10 -
18.10.2017 00:00:00 13,0 12,0 8 4 O - 10 -
17.10.2017 23:00:00 12,6 11,7 8 4 O 1023,7 10 -
17.10.2017 22:00:00 14,0 13,0 8 4 O - 10 -
17.10.2017 21:00:00 15,0 13,0 5 3 O - 10 -
17.10.2017 20:00:00 14,8 13,3 5 3 - 1023,6 10 0,0
17.10.2017 19:00:00 19,0 15,0 5 3 Z - 10 -
17.10.2017 18:00:00 21,0 16,0 8 4 ZW - 10 -
17.10.2017 17:00:00 21,9 15,8 13 7 WZW 1023,7 10 -
17.10.2017 16:00:00 23,0 14,0 15 8 W - 10 -
17.10.2017 15:00:00 23,0 13,0 18 10 W - 10 -
17.10.2017 14:00:00 22,6 13,3 16 9 W 1024,2 10 0,0
17.10.2017 13:00:00 22,0 15,0 16 9 W - 10 -
17.10.2017 12:00:00 22,0 14,0 13 7 W - 10 -
17.10.2017 11:00:00 24,4 7,3 2 1 - 1026,0 10 -
17.10.2017 10:00:00 19,0 13,0 5 3 - - 10 -
17.10.2017 09:00:00 15,0 12,0 11 6 O - 10 -
17.10.2017 08:00:00 13,0 11,6 13 7 O 1026,2 10 -
17.10.2017 07:00:00 11,0 10,0 9 5 O - 10 -
17.10.2017 06:00:00 11,0 10,0 9 5 O - 10 -
17.10.2017 05:00:00 10,9 9,8 9 5 O 1025,9 10 -
17.10.2017 04:00:00 12,0 11,0 8 4 O - 10 -
17.10.2017 03:00:00 12,0 10,0 8 4 O - 10 -
17.10.2017 02:00:00 12,3 11,1 9 5 O 1026,7 10 0,0
17.10.2017 01:00:00 - - - - - - - -
17.10.2017 00:00:00 14,0 13,0 9 5 O - 10 -
16.10.2017 23:00:00 14,0 13,0 9 5 O - 10 -
16.10.2017 22:00:00 14,0 13,0 8 4 O - 10 -
16.10.2017 21:00:00 15,0 14,0 8 4 O - 10 -
16.10.2017 20:00:00 17,0 15,2 8 4 ONO 1027,1 10 0,0
16.10.2017 19:00:00 19,0 16,0 4 2 ZW - 10 -
16.10.2017 18:00:00 21,0 16,0 5 3 - - 10 -
16.10.2017 17:00:00 21,9 15,4 11 6 W 1026,6 10 -

tt = temperatuur
td = dauwpunt
ff = windsnelheid
dd = windrichting
ppp = luchtdruk
vv = zicht
rr = neerslag

Weerstations in de omgeving